Location: Unspecified
(0.0000°N, 0.0000°E)
Time: 04:41:20
(UTC+00:00)

QB50P2 - Pass Details

Date: 22 March 2026
Orbit: 517 x 528 km, 98.1° (Epoch: 20 April)

Event Time Altitude Azimuth Distance (km) Brightness Sun altitude
Rises 04:29:01 0° 22° (NNE) 2,623 ? -24.5°
Reaches altitude 10° 04:31:09 10° 29° (NNE) 1,741 ? -24.0°
Maximum altitude 04:34:44 44° 102° (ESE) 724 ? -23.1°
Drops below altitude 10° 04:38:21 10° 175° (S) 1,755 ? -22.2°
Sets 04:40:31 0° 181° (S) 2,648 ? -21.6°
